Regional Weather Roundup
Issued by NWS

Home | Current Version | Previous Version | Text Only | Print | Product List | Glossary On
Versions: 1 2 3 4 5 6 7 8 9 10 11 12 13 14 15 16 17 18 19 20 21 22 23 24 25 26 27 28 29 30 31 32 33 34 35 36 37 38 39 40 41 42 43 44 45 46 47 48 49 50
000
ASUS44 KFWD 231715
RWRTX
NORTH TEXAS HOURLY WEATHER ROUNDUP
NATIONAL WEATHER SERVICE FORT WORTH TX
1200 PM CDT TUE MAY 23 2017

NOTE: "FAIR" INDICATES FEW OR NO CLOUDS BELOW 12,000 FEET WITH NO
SIGNIFICANT WEATHER AND/OR OBSTRUCTIONS TO VISIBILITY.

TXZ118-119-231800-
DALLAS/FORT WORTH METROPLEX

CITY           SKY/WX    TMP DP  RH WIND       PRES   REMARKS
DFW AIRPORT    PTSUNNY   74  63  68 N12       29.87F
DALLAS LOVE    PTSUNNY   72  62  71 N8        29.88F
FTW MEACHAM    CLOUDY    73  61  65 N14       29.89F
DAL-EXECUTIVE  CLOUDY    69  66  90 N5        29.88S
FTW-ALLIANCE   PTSUNNY   74  58  57 N12       29.90F
FTW-NAS-JRB    PTSUNNY   74  60  61 NW16      29.91S
FTW-SPINKS     PTSUNNY   70  64  83 NW12      29.90F
ARLINGTON      LGT RAIN  69  63  81 N10       29.89F
GRAND PRAIRIE  PTSUNNY   70  64  83 N5        29.90F
ADDISON        CLOUDY    70  63  78 NW8       29.90F
MESQUITE       CLOUDY    64  64 100 NW3       29.90F
LANCASTER      CLOUDY    66  62  86 CALM      29.90F
$$

TXZ091>094-102>105-117-120-121-131>134-231800-
NORTH CENTRAL TEXAS

CITY           SKY/WX    TMP DP  RH WIND       PRES   REMARKS
SHRMAN/DENISON CLOUDY    69  60  73 CALM      29.90S
GAINESVILLE    CLOUDY    66  57  72 N15G21    29.94S
BOWIE          MOSUNNY   65  56  72 N13G20    29.96S
BRIDGEPORT     PTSUNNY   71  55  56 NW13      29.96S
DECATUR        MOSUNNY   68  57  66 NW10G18   29.94R
DENTON         CLOUDY    71  58  63 N9        29.90F
MCKINNEY       CLOUDY    70  64  81 NE6       29.89F
BONHAM         CLOUDY    66  63  88 W5        29.90S
GREENVILLE       N/A     70  63  78 NW5       29.90F
ROCKWALL       CLOUDY    67  65  91 W6        29.90F
TERRELL        LGT RAIN  68  63  84 SW6       29.89F
WAXAHACHIE     CLOUDY    68  66  94 NW9       29.90F
CLEBURNE       CLOUDY    66  66 100 N14       29.91F
GRANBURY       CLOUDY    72  61  70 NW13G20   29.92F
$$

TXZ083>090-098>101-113>116-127>130-139>142-154-155-231800-
WESTERN NORTH TEXAS

CITY           SKY/WX    TMP DP  RH WIND       PRES   REMARKS
WICHITA FALLS  CLOUDY    63  51  65 N17       29.99R
WF-KICKAPOO    CLOUDY    64  51  63 N13G28    30.03R
VERNON         CLOUDY    60  49  67 NW15      30.05S
ABILENE        CLOUDY    61  52  72 N13       30.03S
GRAHAM         PTSUNNY   67  52  59 N13G21    29.96F
BRECKENRIDGE   MOSUNNY   69  50  50 N15       29.99F
CISCO          LGT RAIN  64  59  82 N12G20    29.99F
EASTLAND       CLOUDY    65  57  76 N10       29.98S
RANGER         CLOUDY    63  59  86 N7        29.99R
MINERAL WELLS  CLOUDY    71  57  61 N16G23    29.93S
STEPHENVILLE   CLOUDY    66  60  82 NW15      29.96F
COMANCHE       CLOUDY    68  62  81 N16G22    29.97S
BROWNWOOD      CLOUDY    66  59  77 N21G26    29.98R
COLEMAN        CLOUDY    65  56  72 N18G24    30.01R
$$

TXZ143>147-156>162-174-175-231800-
CENTRAL TEXAS

CITY           SKY/WX    TMP DP  RH WIND       PRES   REMARKS
WACO           PTSUNNY   73  62  68 NW8       29.89S
WACO-TSTC      PTSUNNY   73  64  73 SW7       29.89F
WACO-MCGREGOR  MOSUNNY   76  64  66 NW10      29.89R
HILLSBORO      CLOUDY    71  64  78 NW15      29.88F
CORSICANA      CLOUDY    74  65  73 NW9       29.87F
MEXIA          PTSUNNY   74  62  68 CALM      29.84F
HEARNE         PTSUNNY   71  65  80 NW6       29.88F
CAMERON        PTSUNNY   72  64  74 N3        29.88F
TEMPLE         SUNNY     75  65  70 SW9       29.88F
KILLEEN        NOT AVBL
KILLEEN-SKYLRK SUNNY     74  64  71 CALM      29.89F
HAMILTON       MOSUNNY   72  61  68 NW21G26   29.93S
LAMPASAS       SUNNY     76  61  59 N8        29.90F
$$

TXZ095>097-106>112-122>126-135>138-148>153-164>167-231800-
EAST TEXAS

CITY           SKY/WX    TMP DP  RH WIND       PRES   REMARKS
PARIS          CLOUDY    68  61  77 W6        29.89S
SULPHUR SPRNGS CLOUDY    71  63  76 NW12      29.90F
MOUNT PLEASANT CLOUDY    71  60  67 NW5       29.88F
GILMER         PTSUNNY   68  61  76 N6        29.86F
MINEOLA        CLOUDY    68  61  77 NW5       29.88S
TYLER          CLOUDY    73  62  68 NW8       29.88S
LONGVIEW       PTSUNNY   73  64  73 NW9       29.86F
MARSHALL       CLOUDY    68  62  79 N5        29.89S
ATHENS         CLOUDY    68  61  77 NW6       29.89R
PALESTINE      PTSUNNY   71  65  79 W8        29.91S
JACKSONVILLE   PTSUNNY   70  64  81 N5        29.89F
HENDERSON      CLOUDY    70  62  76 CALM      29.87F
CENTER         CLOUDY    71  67  89 N7G16     29.88F
NACOGDOCHES    CLOUDY    70  63  78 N6        29.86F
LUFKIN         CLOUDY    68  62  81 VRB3      29.87F
$$

SUPPLEMENTAL OBSERVATIONS (NWS FORT WORTH AREA)

CITY           SKY/WX    TMP DP  RH WIND       PRES   REMARKS
DENISON DAM      N/A     68  59  73 NW9         N/A
CADDO GRASSLND   N/A     72  63  73 S5          N/A
PAT MAYSE LAKE   N/A     72  57  60 SW5         N/A
GREENVILLE       N/A     66  59  77 N10         N/A
CEDAR HILL       N/A     66  63  88 NE3         N/A
LBJ GRASSLAND    N/A     70  57  64 NW8G17      N/A
POSSUM KINGDOM   N/A     68  52  56 N13G21      N/A
GRANBURY         N/A     72  59  64 NW15        N/A
COMANCHE         N/A     66  59  77 N17G23      N/A
MCGREGOR         N/A     81  63  54 W5G13       N/A
TEMPLE           N/A     75  63  64 W6          N/A
LAKE LIMESTONE   N/A     75  63  64 N3          N/A
ATHENS           N/A     72  63  73 W3          N/A
$$

SUPPLEMENTAL OBSERVATIONS (NWS NORMAN AREA)

CITY           SKY/WX    TMP DP  RH WIND       PRES   REMARKS
GOODLETT         N/A     59  47  63 NW7       30.08R
ODELL            N/A     58  52  81 NW14      30.07S
CROWELL          N/A     56  52  84 NW10      30.08R
KNOX CITY        N/A     60  49  69 NW13      30.08R
SEYMOUR          N/A     60  52  74 NW20      30.04F
MILLERS CREEK    N/A     61  50  67 N13         N/A
$$

SUPPLEMENTAL OBSERVATIONS (NWS SAN ANGELO AREA)

CITY           SKY/WX    TMP DP  RH WIND       PRES   REMARKS
WEINERT          N/A     60  50  69 N16       30.07R
THROCKMORTON     N/A     62  52  69 NW15      30.04S
STAMFORD         N/A     60  53  78 N14       30.06S
CLYDE            N/A     61  51  71 N15       30.03F
HAMBY            N/A     63  52  67 N9G18       N/A
$$

SUPPLEMENTAL OBSERVATIONS (NWS SHREVEPORT AREA)

CITY           SKY/WX    TMP DP  RH WIND       PRES   REMARKS
CLARKSVILLE      N/A     72  61  68 CALM        N/A
CADDO LAKE       N/A     73  64  73 W3          N/A
GILMER           N/A     72  61  68 N5          N/A
HENDERSON        N/A     73  64  73 NW2G10      N/A
LUFKIN           N/A     70  63  78 MISG        N/A
N SABINE NF      N/A     68  63  83 MISG        N/A
S SABINE NF      N/A     68  64  88 NW3         N/A
$$

SUPPLEMENTAL OBSERVATIONS ARE A COLLECTION OF AUTOMATED INSTRUMENTS
THAT ARE MAINTAINED BY A VARIETY OF FEDERAL AND STATE AGENCIES.
CERTAIN ELEMENTS...SUCH AS HUMIDITY VALUES AND SUSTAINED WIND
SPEEDS...MAY BE APPROXIMATED.




USA.gov is the U.S. government's official web portal to all federal, state and local government web resources and services.